Hill City, KS

1:57 AM CDT on May 28, 2017 (GMT -0500)
Hill City Municipal

Weather History for KHLC - December, 2014

Change the Weather History Date:

Friday, December 12, 2014

  Actual Average Record
Temperature  
Mean Temperature 50 °F 30 °F  
Max Temperature 56 °F 43 °F 70 °F (1921)
Min Temperature 43 °F 18 °F -19 °F (1932)
Degree Days  
Heating Degree Days 16    
Moisture  
Dew Point 45 °F    
Average Humidity 89    
Maximum Humidity 100    
Minimum Humidity 64    
Precipitation  
Precipitation 0.00 in 0.03 in 0.17 in (2002)
Month to date precipitation 0.00 0.40  
Year to date precipitation 21.45 22.63  
Sea Level Pressure  
Sea Level Pressure 30.15 in    
Wind  
Wind Speed 7 mph (South)    
Max Wind Speed 14 mph    
Max Gust Speed 21 mph    
Visibility 6 miles    
Events Fog    
T = Trace of Precipitation, MM = Missing Value Source: NWS Daily Summary

Daily Weather History Graph

Daily Weather History Graph

Search for Another Location

Airport or City:

Trip Planner

Search our weather history database for the weather conditions in past years. The results will help you decide how hot, cold, wet, or windy it might be!

Date:

Astronomy

Dec. 12, 2014 Rise Set
Actual Time 7:50 AM CST 5:16 PM CST
Civil Twilight 7:19 AM CST 5:46 PM CST
Nautical Twilight 6:46 AM CST 6:19 PM CST
Astronomical Twilight 6:13 AM CST 6:52 PM CST
Moon 11:22 PM CST (12/12) 11:46 AM CST (12/12)
Length of Visible Light 10h 26m
Length of Day
9h 26m
Waning Gibbous, 67% of the Moon is Illuminated
Dec 12
Waning Gibbous
Dec 14
Last Quarter
Dec 21
New
Dec 28
First Quarter
Jan 4
Full

Hourly Weather History & Observations

Time (CST) Temp. Windchill Dew Point Humidity Pressure Visibility Wind Dir Wind Speed Gust Speed Precip Events Conditions
12:31 AM 44.1 °F 39.0 °F 41.0 °F 89% 30.17 in 4.0 mi SW 9.2 mph - N/A   Overcast
12:53 AM 44.1 °F 39.5 °F 42.1 °F 93% 30.19 in 4.0 mi SW 8.1 mph - N/A   Overcast
1:03 AM 44.1 °F 40.8 °F 42.1 °F 93% 30.16 in 4.0 mi WSW 5.8 mph - N/A   Overcast
1:53 AM 43.0 °F 40.3 °F 42.1 °F 97% 30.17 in 2.5 mi South 4.6 mph - N/A   Overcast
2:32 AM 43.0 °F 41.3 °F 42.1 °F 97% 30.15 in 3.0 mi SSE 3.5 mph - N/A   Overcast
2:53 AM 44.1 °F - 42.1 °F 93% 30.18 in 4.0 mi Calm Calm - N/A   Overcast
3:19 AM 44.1 °F 42.5 °F 43.0 °F 96% 30.15 in 2.0 mi South 3.5 mph - N/A   Overcast
3:36 AM 44.1 °F 42.5 °F 43.0 °F 96% 30.15 in 0.8 mi South 3.5 mph - N/A   Mist
3:53 AM 44.1 °F 40.8 °F 43.0 °F 96% 30.17 in 0.5 mi SSE 5.8 mph - N/A Fog Fog
4:13 AM 45.0 °F 41.8 °F 44.1 °F 97% 30.15 in 1.0 mi SSE 5.8 mph - N/A   Mist
4:53 AM 45.0 °F 42.6 °F 44.1 °F 97% 30.17 in 1.2 mi South 4.6 mph - N/A   Overcast
5:09 AM 45.0 °F 41.2 °F 45.0 °F 100% 30.14 in 1.8 mi South 6.9 mph - N/A   Overcast
5:16 AM 46.0 °F 43.1 °F 45.0 °F 96% 30.14 in 2.5 mi South 5.8 mph - N/A   Overcast
5:42 AM 46.0 °F 43.1 °F 45.0 °F 96% 30.15 in 3.0 mi South 5.8 mph - N/A   Overcast
5:53 AM 46.0 °F 42.5 °F 45.0 °F 96% 30.17 in 2.5 mi South 6.9 mph - N/A   Overcast
6:10 AM 46.0 °F 43.9 °F 45.0 °F 96% 30.15 in 2.0 mi South 4.6 mph - N/A   Overcast
6:27 AM 46.0 °F 43.9 °F 45.0 °F 96% 30.15 in 2.0 mi South 4.6 mph - N/A   Overcast
6:53 AM 46.0 °F 43.9 °F 45.0 °F 96% 30.17 in 3.0 mi South 4.6 mph - N/A   Overcast
7:53 AM 46.9 °F - 45.0 °F 93% 30.19 in 5.0 mi SSW 8.1 mph - N/A   Overcast
8:53 AM 46.9 °F - 44.1 °F 90% 30.20 in 6.0 mi SSW 6.9 mph - N/A   Overcast
9:53 AM 46.9 °F - 44.1 °F 90% 30.21 in 6.0 mi South 8.1 mph - N/A   Overcast
10:53 AM 46.9 °F - 44.1 °F 90% 30.21 in 6.0 mi SSW 13.8 mph 20.7 mph N/A   Overcast
11:53 AM 48.9 °F - 45.0 °F 86% 30.19 in 9.0 mi South 9.2 mph - N/A   Overcast
12:33 PM 51.1 °F - 46.0 °F 83% 30.15 in 10.0 mi SSW 11.5 mph - N/A   Overcast
12:53 PM 52.0 °F - 46.0 °F 80% 30.15 in 10.0 mi SSW 10.4 mph - N/A   Overcast
1:09 PM 52.0 °F - 46.0 °F 80% 30.14 in 10.0 mi SSW 12.7 mph - N/A   Overcast
1:53 PM 54.0 °F - 45.0 °F 72% 30.12 in 10.0 mi SSW 10.4 mph - N/A   Overcast
2:53 PM 55.0 °F - 45.0 °F 69% 30.10 in 10.0 mi SSW 11.5 mph - N/A   Overcast
3:53 PM 55.9 °F - 44.1 °F 64% 30.10 in 10.0 mi SSW 11.5 mph - N/A   Overcast
4:53 PM 55.0 °F - 44.1 °F 67% 30.11 in 10.0 mi South 10.4 mph - N/A   Overcast
5:53 PM 54.0 °F - 44.1 °F 69% 30.12 in 10.0 mi South 8.1 mph - N/A   Overcast
6:53 PM 52.0 °F - 46.0 °F 80% 30.12 in 10.0 mi SSE 12.7 mph - N/A   Overcast
7:53 PM 51.1 °F - 46.9 °F 86% 30.12 in 10.0 mi South 11.5 mph - N/A   Overcast
8:53 PM 51.1 °F - 46.9 °F 86% 30.12 in 9.0 mi SSE 11.5 mph - N/A   Overcast
9:16 PM 50.0 °F - 46.9 °F 89% 30.12 in 8.0 mi SSE 9.2 mph - N/A   Overcast
9:53 PM 50.0 °F - 46.9 °F 89% 30.12 in 8.0 mi South 9.2 mph - N/A   Overcast
10:06 PM 50.0 °F - 46.9 °F 89% 30.12 in 8.0 mi South 9.2 mph - N/A   Overcast
10:53 PM 50.0 °F - 46.9 °F 89% 30.12 in 7.0 mi South 10.4 mph - N/A   Overcast
11:13 PM 48.9 °F - 46.9 °F 93% 30.12 in 7.0 mi South 9.2 mph - N/A   Overcast
11:34 PM 48.9 °F - 46.9 °F 93% 30.12 in 8.0 mi South 10.4 mph - N/A   Overcast
11:53 PM 48.9 °F - 46.9 °F 93% 30.13 in 8.0 mi South 9.2 mph - N/A   Overcast